Galesburg, IL

7:03 AM CDT on August 19, 2019 (GMT -0500)
Galesburg Municipal

Weather History for KGBG - May, 2019

Change the Weather History Date:

Wednesday, May 1, 2019

  Actual Average Record
Temperature  
Mean Temperature 54 °F -  
Max Temperature 61 °F 67 °F 89 °F (1952)
Min Temperature 49 °F 46 °F 29 °F (1978)
Degree Days  
Heating Degree Days 10    
Growing Degree Days 4 (Base 50)    
Moisture  
Dew Point 52 °F    
Average Humidity 94    
Maximum Humidity 100    
Minimum Humidity 81    
Precipitation  
Precipitation 0.09 in - - ()
Sea Level Pressure  
Sea Level Pressure 29.95 in    
Wind  
Wind Speed 8 mph (NW)    
Max Wind Speed 23 mph    
Max Gust Speed 33 mph    
Visibility 6 miles    
Events Fog , Rain    
Averages and records for this station are not official NWS values.
T = Trace of Precipitation, MM = Missing Value Source: NWS Daily Summary

Daily Weather History Graph

Daily Weather History Graph

Search for Another Location

Airport or City:

Astronomy

May. 01, 2019 Rise Set
Actual Time 6:00 AM CDT 7:58 PM CDT
Civil Twilight 5:30 AM CDT 8:28 PM CDT
Nautical Twilight 4:54 AM CDT 9:04 PM CDT
Astronomical Twilight 4:14 AM CDT 9:44 PM CDT
Moon 4:47 AM CDT (5/1) 4:44 PM CDT (5/1)
Length of Visible Light 14h 57m
Length of Day
13h 58m
Waning Crescent, 10% of the Moon is Illuminated
May 1
Waning Crescent
May 4
New
May 11
First Quarter
May 18
Full
May 26
Last Quarter

Hourly Weather History & Observations

Time (CDT) Temp. Dew Point Humidity Pressure Visibility Wind Dir Wind Speed Gust Speed Precip Events Conditions
12:15 AM 50.0 °F 49.8 °F 99% 29.90 in 5.0 mi East 9.2 mph - 0.04 in Rain Rain
12:35 AM 49.6 °F 49.5 °F 99% 29.85 in 7.0 mi East 12.7 mph 16.1 mph 0.07 in Rain Light Rain
12:55 AM 49.5 °F 49.5 °F 100% 29.76 in 7.0 mi East 20.7 mph 27.6 mph 0.09 in Rain Light Rain
1:15 AM 49.6 °F 49.6 °F 100% 29.69 in 10.0 mi East 23.0 mph 33.4 mph N/A Rain Light Rain
1:35 AM 50.9 °F 50.9 °F 100% 29.70 in 10.0 mi ESE 16.1 mph 29.9 mph N/A   Overcast
1:55 AM 51.3 °F 51.1 °F 99% 29.78 in 10.0 mi WNW 12.7 mph - N/A   Overcast
2:15 AM 51.8 °F 51.6 °F 99% 29.76 in 10.0 mi West 8.1 mph - N/A   Overcast
2:35 AM 51.3 °F 51.1 °F 99% 29.77 in 10.0 mi WNW 9.2 mph - N/A   Overcast
2:55 AM 50.7 °F 50.4 °F 99% 29.76 in 10.0 mi ENE 10.4 mph - N/A   Overcast
3:15 AM 50.9 °F 50.9 °F 100% 29.77 in 10.0 mi ENE 10.4 mph - N/A   Overcast
3:35 AM 50.9 °F 50.9 °F 100% 29.81 in 10.0 mi WNW 8.1 mph - N/A   Overcast
3:55 AM 50.9 °F 50.7 °F 99% 29.83 in 7.0 mi WNW 8.1 mph - N/A   Overcast
4:15 AM 50.0 °F 50.0 °F 100% 29.84 in 4.0 mi WNW 5.8 mph - N/A   Overcast
4:35 AM 49.5 °F 49.3 °F 99% 29.84 in 3.0 mi West 3.5 mph - N/A   Overcast
4:55 AM 49.5 °F 49.5 °F 100% 29.85 in 3.0 mi Calm Calm - N/A   Overcast
5:15 AM 49.3 °F 49.3 °F 100% 29.85 in 2.0 mi Calm Calm - N/A   Overcast
5:35 AM 49.3 °F 49.3 °F 100% 29.84 in 1.5 mi Calm Calm - N/A   Overcast
5:55 AM 49.5 °F 49.5 °F 100% 29.85 in 0.8 mi East 4.6 mph - N/A   Overcast
6:15 AM 49.6 °F 49.6 °F 100% 29.85 in 0.5 mi East 5.8 mph - N/A Fog Fog
6:35 AM 50.0 °F 50.0 °F 100% 29.85 in 0.8 mi SSW 4.6 mph - N/A   Overcast
6:55 AM 50.4 °F 50.4 °F 100% 29.87 in 1.2 mi Calm Calm - N/A   Overcast
7:15 AM 50.0 °F 50.0 °F 100% 29.90 in 0.8 mi West 9.2 mph - N/A   Overcast
7:35 AM 49.3 °F 49.3 °F 100% 29.90 in 0.2 mi WNW 8.1 mph - N/A Fog Fog
7:55 AM 49.1 °F 49.1 °F 100% 29.91 in 0.2 mi West 6.9 mph - N/A Fog Fog
8:15 AM 49.1 °F 49.1 °F 100% 29.93 in 0.2 mi West 9.2 mph - N/A Fog Fog
8:35 AM 49.6 °F 49.6 °F 100% 29.93 in 0.2 mi West 6.9 mph - N/A Fog Fog
8:55 AM 49.8 °F 49.8 °F 100% 29.93 in 0.2 mi WSW 3.5 mph - N/A Fog Fog
9:15 AM 50.2 °F 50.2 °F 100% 29.94 in 0.2 mi WSW 4.6 mph - N/A Fog Fog
9:35 AM 50.7 °F 50.7 °F 100% 29.95 in 0.2 mi WSW 4.6 mph - N/A Fog Fog
9:55 AM 51.6 °F 51.6 °F 100% 29.96 in 0.5 mi SW 8.1 mph - N/A Fog Fog
10:15 AM 51.6 °F 51.6 °F 100% 29.97 in 1.0 mi SW 8.1 mph - N/A   Overcast
10:35 AM 52.2 °F 52.2 °F 100% 29.97 in 0.8 mi SW 5.8 mph - N/A   Overcast
10:55 AM 53.1 °F 53.1 °F 100% 29.97 in 2.0 mi SW 5.8 mph - N/A   Overcast
11:15 AM 53.6 °F 53.6 °F 100% 29.98 in 4.0 mi SW 8.1 mph - N/A   Overcast
11:35 AM 54.9 °F 54.9 °F 100% 29.98 in 4.0 mi SW 8.1 mph - N/A   Overcast
11:55 AM 55.8 °F 55.2 °F 98% 29.99 in 5.0 mi SW 9.2 mph - N/A   Overcast
12:15 PM 56.3 °F 54.1 °F 92% 30.00 in 5.0 mi WSW 8.1 mph - N/A   Overcast
12:35 PM 56.7 °F 54.3 °F 92% 30.01 in 5.0 mi WSW 6.9 mph - N/A   Overcast
12:55 PM 57.4 °F 54.5 °F 90% 30.01 in 5.0 mi West 10.4 mph - N/A   Overcast
1:15 PM 57.4 °F 54.7 °F 91% 30.01 in 5.0 mi West 10.4 mph - N/A   Overcast
1:35 PM 57.7 °F 54.5 °F 89% 30.02 in 5.0 mi West 9.2 mph - N/A   Overcast
1:55 PM 57.2 °F 54.1 °F 89% 30.02 in 7.0 mi WNW 9.2 mph - N/A   Overcast
2:15 PM 57.0 °F 53.6 °F 88% 30.02 in 7.0 mi WNW 6.9 mph - N/A   Overcast
2:35 PM 57.0 °F 53.6 °F 88% 30.03 in 7.0 mi WNW 4.6 mph - N/A   Overcast
2:55 PM 57.9 °F 54.7 °F 89% 30.02 in 10.0 mi West 5.8 mph - N/A   Overcast
3:15 PM 57.7 °F 54.0 °F 87% 30.03 in 10.0 mi WNW 4.6 mph - N/A   Overcast
3:35 PM 59.2 °F 55.0 °F 86% 30.02 in 10.0 mi WNW 4.6 mph - N/A   Overcast
3:55 PM 59.4 °F 54.5 °F 84% 30.02 in 10.0 mi West 4.6 mph - N/A   Overcast
4:15 PM 59.0 °F 54.5 °F 85% 30.02 in 10.0 mi WNW 5.8 mph - N/A   Overcast
4:35 PM 59.9 °F 54.9 °F 83% 30.01 in 10.0 mi WNW 3.5 mph - N/A   Overcast
4:55 PM 59.7 °F 54.0 °F 81% 30.02 in 10.0 mi Calm Calm - N/A   Mostly Cloudy
5:15 PM 60.8 °F 54.9 °F 81% 30.02 in 10.0 mi WNW 4.6 mph - N/A   Overcast
5:35 PM 59.9 °F 54.7 °F 83% 30.02 in 10.0 mi Calm Calm - N/A   Overcast
5:55 PM 59.9 °F 54.9 °F 83% 30.03 in 10.0 mi WNW 4.6 mph - N/A   Overcast
6:15 PM 59.5 °F 54.3 °F 83% 30.03 in 10.0 mi WNW 4.6 mph - N/A   Overcast
6:35 PM 59.5 °F 54.7 °F 84% 30.03 in 10.0 mi ENE 3.5 mph - N/A   Overcast
6:55 PM 59.2 °F 54.5 °F 84% 30.03 in 10.0 mi ENE 3.5 mph - N/A   Overcast
7:15 PM 58.6 °F 54.5 °F 86% 30.03 in 10.0 mi ENE 4.6 mph - N/A   Overcast
7:35 PM 58.1 °F 54.3 °F 87% 30.03 in 10.0 mi ENE 6.9 mph - N/A   Overcast
7:55 PM 57.9 °F 54.7 °F 89% 30.03 in 10.0 mi ENE 4.6 mph - N/A   Overcast
8:15 PM 57.6 °F 54.9 °F 91% 30.03 in 10.0 mi NE 6.9 mph - N/A   Overcast
8:35 PM 57.6 °F 54.7 °F 90% 30.04 in 10.0 mi NE 5.8 mph - N/A   Overcast
8:55 PM 57.6 °F 54.5 °F 90% 30.05 in 10.0 mi ENE 4.6 mph - N/A   Overcast
9:15 PM 57.4 °F 54.3 °F 90% 30.05 in 10.0 mi NE 4.6 mph - N/A   Overcast
9:35 PM 57.4 °F 54.0 °F 88% 30.06 in 10.0 mi NE 4.6 mph - N/A   Overcast
9:55 PM 57.4 °F 54.3 °F 90% 30.05 in 10.0 mi ENE 8.1 mph - N/A   Overcast
10:15 PM 57.2 °F 54.0 °F 89% 30.06 in 7.0 mi NE 5.8 mph - N/A   Overcast
10:35 PM 57.0 °F 54.0 °F 89% 30.05 in 7.0 mi NE 6.9 mph - N/A   Overcast
10:55 PM 56.8 °F 54.0 °F 90% 30.05 in 7.0 mi ENE 8.1 mph - N/A   Overcast
11:15 PM 56.7 °F 53.8 °F 90% 30.05 in 7.0 mi ENE 6.9 mph - N/A   Overcast
11:35 PM 56.3 °F 53.6 °F 91% 30.05 in 7.0 mi East 3.5 mph - N/A   Mostly Cloudy
11:55 PM 56.1 °F 53.6 °F 91% 30.05 in 7.0 mi ENE 3.5 mph - N/A   Mostly Cloudy